AUA664 EDDG-LOWW

Flight info

Callsign AUA664
Flight time 1h 59m
Altitude 19000
Route DOMEG3Z/25 DOMEG Z841 GMH Q603 TESGA DCT BARSU DCT EKSOS DCT LULAR DCT RUDAP DCT BUDEX BUDEX2W
Aircraft AT76/M-SDFGIRY/S

Departure

Time 2026-04-24 16:55
Airport Münster Osnabrück Airport (EDDG)

Arrival

Time 2026-04-24 18:54
Airport Vienna International Airport (LOWW)
Time Latitude Longitude Altitude Speed Heading
2026-04-24 16:11 52.13106 7.69117 164 ft 0 kts 191°
2026-04-24 16:49 52.13104 7.69111 164 ft 0 kts 236°
2026-04-24 16:50 52.13105 7.69108 164 ft 0 kts 264°
2026-04-24 16:50 52.13109 7.69104 164 ft 1 kts 314°
2026-04-24 16:50 52.13113 7.69102 164 ft 1 kts 336°
2026-04-24 16:50 52.13123 7.69103 164 ft 2 kts 12°
2026-04-24 16:51 52.13167 7.69143 164 ft 12 kts 29°
2026-04-24 16:51 52.13208 7.69234 164 ft 10 kts 71°
2026-04-24 16:51 52.13245 7.69318 164 ft 7 kts 11°
2026-04-24 16:51 52.13287 7.69302 164 ft 7 kts 341°
2026-04-24 16:52 52.13357 7.69264 164 ft 12 kts 341°
2026-04-24 16:52 52.13441 7.69238 164 ft 13 kts 25°
2026-04-24 16:52 52.13483 7.69386 164 ft 17 kts 71°
2026-04-24 16:52 52.13523 7.69584 164 ft 19 kts 71°
2026-04-24 16:53 52.13563 7.69771 164 ft 16 kts 76°
2026-04-24 16:53 52.13597 7.69934 165 ft 15 kts 69°
2026-04-24 16:53 52.13668 7.70032 165 ft 12 kts 10°
2026-04-24 16:53 52.13736 7.70013 163 ft 13 kts 340°
2026-04-24 16:54 52.13760 7.69871 164 ft 20 kts 250°
2026-04-24 16:54 52.13652 7.69359 166 ft 78 kts 250°
2026-04-24 16:54 52.13395 7.68249 212 ft 123 kts 244°
2026-04-24 16:54 52.13039 7.67048 742 ft 118 kts 251°
2026-04-24 16:55 52.12691 7.65717 1116 ft 137 kts 250°
2026-04-24 16:55 52.11913 7.64772 1699 ft 148 kts 204°
2026-04-24 16:55 52.10918 7.64321 2443 ft 148 kts 197°
2026-04-24 16:55 52.09866 7.64032 2945 ft 159 kts 189°
2026-04-24 16:56 52.08728 7.63866 3490 ft 169 kts 186°
2026-04-24 16:56 52.07535 7.63714 3974 ft 178 kts 186°
2026-04-24 16:56 52.06261 7.63547 4509 ft 187 kts 185°
2026-04-24 16:56 52.04936 7.63372 5014 ft 197 kts 185°
2026-04-24 16:57 52.03540 7.63190 5503 ft 206 kts 185°
2026-04-24 16:57 52.02040 7.62977 5835 ft 223 kts 185°
2026-04-24 16:57 52.00471 7.62761 6142 ft 235 kts 185°
2026-04-24 16:57 51.98824 7.62531 6459 ft 239 kts 185°
2026-04-24 16:58 51.97119 7.62307 6748 ft 250 kts 185°
2026-04-24 16:58 51.95376 7.62066 7032 ft 258 kts 185°
2026-04-24 16:58 51.93550 7.61804 7324 ft 264 kts 185°
2026-04-24 16:58 51.91697 7.61544 7616 ft 269 kts 185°
2026-04-24 16:59 51.89833 7.61282 7911 ft 273 kts 185°
2026-04-24 16:59 51.87923 7.61016 8213 ft 276 kts 185°
2026-04-24 16:59 51.84078 7.60483 8823 ft 280 kts 185°
2026-04-24 17:00 51.82127 7.60209 9122 ft 282 kts 185°
2026-04-24 17:00 51.78843 7.59760 9645 ft 284 kts 185°
2026-04-24 17:00 51.76879 7.59483 9956 ft 285 kts 185°
2026-04-24 17:01 51.72927 7.58932 10538 ft 287 kts 185°
2026-04-24 17:01 51.70922 7.58721 10822 ft 286 kts 176°
2026-04-24 17:02 51.67185 7.60685 11407 ft 283 kts 156°
2026-04-24 17:02 51.65352 7.61911 11704 ft 284 kts 156°
2026-04-24 17:02 51.63526 7.63039 11994 ft 286 kts 159°
2026-04-24 17:02 51.61662 7.64094 12298 ft 287 kts 160°
2026-04-24 17:03 51.57932 7.66199 12902 ft 288 kts 159°
2026-04-24 17:03 51.56069 7.67256 13162 ft 291 kts 159°
2026-04-24 17:03 51.54126 7.68362 13322 ft 296 kts 159°
2026-04-24 17:04 51.52163 7.69477 13482 ft 300 kts 159°
2026-04-24 17:04 51.48236 7.71705 13803 ft 306 kts 159°
2026-04-24 17:04 51.46223 7.72844 13956 ft 308 kts 159°
2026-04-24 17:05 51.44197 7.73993 14108 ft 309 kts 159°
2026-04-24 17:05 51.42176 7.75132 14250 ft 310 kts 159°
2026-04-24 17:05 51.38088 7.77436 14537 ft 311 kts 159°
2026-04-24 17:06 51.36066 7.78574 14674 ft 311 kts 159°
2026-04-24 17:06 51.31964 7.80892 14959 ft 311 kts 159°
2026-04-24 17:06 51.29948 7.82026 15100 ft 311 kts 159°
2026-04-24 17:07 51.27903 7.83175 15254 ft 310 kts 159°
2026-04-24 17:07 51.25862 7.84323 15404 ft 310 kts 159°
2026-04-24 17:07 51.21794 7.86604 15699 ft 310 kts 159°
2026-04-24 17:08 51.17749 7.88874 15993 ft 309 kts 159°
2026-04-24 17:08 51.15782 7.90243 16133 ft 307 kts 148°
2026-04-24 17:08 51.14000 7.92095 16290 ft 305 kts 143°
2026-04-24 17:09 51.10527 7.95937 16598 ft 305 kts 145°
2026-04-24 17:09 51.06929 7.99578 16902 ft 305 kts 146°
2026-04-24 17:10 51.05155 8.01375 17053 ft 305 kts 145°
2026-04-24 17:10 50.99799 8.06807 17519 ft 304 kts 146°
2026-04-24 17:11 50.94472 8.12190 18000 ft 302 kts 146°
2026-04-24 17:12 50.85625 8.21053 18760 ft 300 kts 146°
2026-04-24 18:54 48.11530 16.56788 599 ft 0 kts 203°